Flag for U.S.A. Weather past 2 weeks in Ontario, Oregon, U.S.A.

Now
52 °F

Passing clouds.


Feels Like: 45 °F
Forecast: 26 / 48 °F
Wind: 26 mph from Northwest

Location: Ontario Municipal Airport

Current Time: Feb 28, 2015 at 6:17:13 PM

Latest Report: Feb 28, 2015 at 4:53 PM


Visibility: 10 mi

Pressure: 29.90 "Hg

Humidity: 27%

Dew point: 19 °F

Location of OntarioLocation

Historic Weather in Ontario — Graph

°F

Ontario temperature yesterday

Maximum temperature yesterday: 54 °F (at 1:53 PM)
Minimum temperature yesterday: 28 °F (at 6:53 AM)
Average temperature yesterday: 42 °F

Past Weeks' High & Low Weather Summary

 TemperatureHumidityPressure
High63 °F (Feb 14, 4:53 PM)93% (Feb 14, 5:53 AM)30.50 "Hg (Feb 14, 5:53 AM)
Low19 °F (Feb 23, 3:53 AM)15% (Feb 22, 3:53 PM)29.67 "Hg (Feb 27, 4:53 PM)
Average42 °F58%30.21 "Hg
* Reported Feb 13 4:53 PM — Feb 28 4:53 PM, Ontario, Weather by CustomWeather, © 2015

Note: Actual official high and low records may vary slightly from our data, if they occured in-between our weather recording intervals... More about our weather records

Advertising

Ontario weather history for previous 24 hours

 ConditionsComfort  
Time TempWeatherWind HumidityBarometerVisibility
4:53 PM
Sat, Feb 28
52 °FPassing clouds.26 mph27%29.90 "Hg10 mi
3:53 PM54 °FSunny.21 mph27%29.88 "Hg10 mi
2:53 PM52 °FPartly sunny.N/A43%29.88 "Hg10 mi
1:53 PM50 °FOvercast.6 mph50%29.89 "Hg10 mi
12:53 PM50 °FOvercast.6 mph57%29.90 "Hg10 mi
11:53 AM47 °FOvercast.9 mph66%29.90 "Hg10 mi
10:53 AM43 °FPartly sunny.8 mph79%29.89 "Hg10 mi
9:53 AM39 °FOvercast.7 mph86%29.89 "Hg10 mi
8:53 AM38 °FOvercast.6 mph86%29.88 "Hg10 mi
7:53 AM37 °FMostly cloudy.5 mph89%29.85 "Hg10 mi
6:53 AM38 °FOvercast.9 mph90%29.82 "Hg10 mi
5:53 AM38 °FLight rain. Overcast.8 mph90%29.80 "Hg10 mi
4:53 AM41 °FMostly cloudy.6 mph82%29.77 "Hg10 mi
3:53 AM42 °FLight rain. Overcast.8 mph79%29.75 "Hg10 mi
2:53 AM41 °FOvercast.5 mph86%29.75 "Hg10 mi
1:53 AM42 °FMostly cloudy.6 mph82%29.73 "Hg10 mi
12:53 AM42 °FOvercast.No wind85%29.72 "Hg10 mi
11:53 PM
Fri, Feb 27
42 °FOvercast.No wind82%29.72 "Hg10 mi
10:53 PM44 °FMostly cloudy.No wind76%29.71 "Hg10 mi
9:53 PM43 °FPartly cloudy.6 mph82%29.71 "Hg10 mi
8:53 PM45 °FMostly cloudy.3 mph74%29.70 "Hg10 mi
7:53 PM45 °FLight rain. Overcast.12 mph76%29.70 "Hg10 mi
6:53 PM48 °FPartly sunny.14 mph63%29.70 "Hg10 mi
Weather by CustomWeather, © 2015

See weather overviewHow to use our weather pages